Aquadonna — A8TW9 — position and weather

sailwx.info

Track history (hours):
 
Tides and Currents Weather Stations Pressure Air Temp Water Temp Dewpoint Dewpoint Depression Visibility Wind Speed Wind Dir Waves Ship Positions

Aquadonna

Last reported at 2014-Jul-26 03:31 UTC. Time now 2014-Jul-29 20:58 UTC.
Position N 46°34' E 031°05'.

Length 280 m; draft 9.1 m.

Type: Cargo ship. MMSI: 636014449.

Date/timePositionNaut miles runAvg speedWind from/ knotsBaromVisibWave heightAir tempDewpointWater temp
2014-Jul-26 03:31N 46°34' E 031°05'0 0.0
2014-Jul-26 01:28N 46°34' E 031°05'0 0.0
2014-Jul-25 23:31N 46°34' E 031°05'0 0.0
2014-Jul-25 04:19N 46°34' E 031°05'0 0.1
2014-Jul-25 03:31N 46°34' E 031°05'0 0.1
2014-Jul-25 02:25N 46°34' E 031°05'0 0.0
2014-Jul-24 23:25N 46°34' E 031°05'0 0.0
2014-Jul-24 20:25N 46°34' E 031°05'0 0.1
2014-Jul-24 19:31N 46°34' E 031°05'0 0.0
2014-Jul-24 04:31N 46°34' E 031°05'0 0.0
2014-Jul-24 03:31N 46°34' E 031°05'0 0.0
2014-Jul-24 01:28N 46°34' E 031°05'0 0.0
2014-Jul-24 00:28N 46°34' E 031°05'0 0.0
2014-Jul-23 17:10N 46°34' E 031°05'0 0.0
2014-Jul-23 16:31N 46°34' E 031°05'0 0.1
2014-Jul-23 15:19N 46°34' E 031°05'0 0.0
2014-Jul-23 05:19N 46°34' E 031°05'0 0.0
2014-Jul-23 04:28N 46°34' E 031°05'0 0.0
2014-Jul-23 03:31N 46°34' E 031°05'0 0.0
2014-Jul-23 02:19N 46°34' E 031°05'0 0.0
2014-Jul-23 01:13N 46°34' E 031°05'0 0.0
2014-Jul-23 00:19N 46°34' E 031°05'0 0.0
2014-Jul-22 23:31N 46°34' E 031°05'0 0.1
2014-Jul-22 22:13N 46°34' E 031°05'0 0.2
2014-Jul-22 21:31N 46°34' E 031°05'124 6.9
2014-Jul-22 03:23N 44°52' E 032°46'1313.2
2014-Jul-22 02:26N 44°42' E 032°58'5513.3
2014-Jul-21 22:20N 44°03' E 033°51'1013.4
2014-Jul-21 21:34N 44°02' E 034°05'1313.4
2014-Jul-21 20:34N 44°02' E 034°24'413.6
2014-Jul-21 20:18N 44°02' E 034°29'1013.4
2014-Jul-21 19:34N 44°02' E 034°43'1312.9
2014-Jul-21 18:33N 44°00' E 035°00'1413.6
2014-Jul-21 17:34N 44°00' E 035°19'1513.3
2014-Jul-21 16:25N 43°59' E 035°40'2913.5
2014-Jul-21 14:18N 43°56' E 036°20'78 1.5
2014-Jul-19 11:07N 44°34' E 037°55'0 0.0
2014-Jul-19 10:31N 44°34' E 037°55'0 0.0
2014-Jul-18 14:33N 44°34' E 037°55'0 0.3
2014-Jul-18 13:33N 44°34' E 037°55'6 5.7
2014-Jul-18 12:33N 44°31' E 037°48'1211.8
2014-Jul-18 11:33N 44°26' E 037°33'10 7.4
2014-Jul-18 10:14N 44°21' E 037°21'810.9
2014-Jul-18 09:32N 44°18' E 037°11'7514.0
2014-Jul-18 04:09N 43°43' E 035°39'6813.8
2014-Jul-17 23:11N 43°11' E 034°15'  
Track history (hours):
 
Tides and Currents Weather Stations Pressure Air Temp Water Temp Dewpoint Dewpoint Depression Visibility Wind Speed Wind Dir Waves Ship Positions

Aquadonna

Last reported at 2014-Jul-26 03:31 UTC. Time now 2014-Jul-29 20:58 UTC.
Position N 46°34' E 031°05'.

Length 280 m; draft 9.1 m.

Type: Cargo ship. MMSI: 636014449.

Date/timePositionNaut miles runAvg speedWind from/ knotsBaromVisibWave heightAir tempDewpointWater temp
2014-Jul-26 03:31N 46°34' E 031°05'0 0.0
2014-Jul-26 01:28N 46°34' E 031°05'0 0.0
2014-Jul-25 23:31N 46°34' E 031°05'0 0.0
2014-Jul-25 04:19N 46°34' E 031°05'0 0.1
2014-Jul-25 03:31N 46°34' E 031°05'0 0.1
2014-Jul-25 02:25N 46°34' E 031°05'0 0.0
2014-Jul-24 23:25N 46°34' E 031°05'0 0.0
2014-Jul-24 20:25N 46°34' E 031°05'0 0.1
2014-Jul-24 19:31N 46°34' E 031°05'0 0.0
2014-Jul-24 04:31N 46°34' E 031°05'0 0.0
2014-Jul-24 03:31N 46°34' E 031°05'0 0.0
2014-Jul-24 01:28N 46°34' E 031°05'0 0.0
2014-Jul-24 00:28N 46°34' E 031°05'0 0.0
2014-Jul-23 17:10N 46°34' E 031°05'0 0.0
2014-Jul-23 16:31N 46°34' E 031°05'0 0.1
2014-Jul-23 15:19N 46°34' E 031°05'0 0.0
2014-Jul-23 05:19N 46°34' E 031°05'0 0.0
2014-Jul-23 04:28N 46°34' E 031°05'0 0.0
2014-Jul-23 03:31N 46°34' E 031°05'0 0.0
2014-Jul-23 02:19N 46°34' E 031°05'0 0.0
2014-Jul-23 01:13N 46°34' E 031°05'0 0.0
2014-Jul-23 00:19N 46°34' E 031°05'0 0.0
2014-Jul-22 23:31N 46°34' E 031°05'0 0.1
2014-Jul-22 22:13N 46°34' E 031°05'0 0.2
2014-Jul-22 21:31N 46°34' E 031°05'124 6.9
2014-Jul-22 03:23N 44°52' E 032°46'1313.2
2014-Jul-22 02:26N 44°42' E 032°58'5513.3
2014-Jul-21 22:20N 44°03' E 033°51'1013.4
2014-Jul-21 21:34N 44°02' E 034°05'1313.4
2014-Jul-21 20:34N 44°02' E 034°24'413.6
2014-Jul-21 20:18N 44°02' E 034°29'1013.4
2014-Jul-21 19:34N 44°02' E 034°43'1312.9
2014-Jul-21 18:33N 44°00' E 035°00'1413.6
2014-Jul-21 17:34N 44°00' E 035°19'1513.3
2014-Jul-21 16:25N 43°59' E 035°40'2913.5
2014-Jul-21 14:18N 43°56' E 036°20'78 1.5
2014-Jul-19 11:07N 44°34' E 037°55'0 0.0
2014-Jul-19 10:31N 44°34' E 037°55'0 0.0
2014-Jul-18 14:33N 44°34' E 037°55'0 0.3
2014-Jul-18 13:33N 44°34' E 037°55'6 5.7
2014-Jul-18 12:33N 44°31' E 037°48'1211.8
2014-Jul-18 11:33N 44°26' E 037°33'10 7.4
2014-Jul-18 10:14N 44°21' E 037°21'810.9
2014-Jul-18 09:32N 44°18' E 037°11'7514.0
2014-Jul-18 04:09N 43°43' E 035°39'6813.8
2014-Jul-17 23:11N 43°11' E 034°15'  

Dump ship's entire track history